Charlotte, NC

9:32 PM EDT on June 25, 2017 (GMT -0400)
Charlotte-Douglas International

Weather History for KCLT - October, 2002

Change the Weather History Date:

Wednesday, October 30, 2002

  Actual Average Record
Temperature  
Mean Temperature 47 °F 56 °F  
Max Temperature 52 °F 68 °F 84 °F (1950)
Min Temperature 42 °F 44 °F 26 °F (1952)
Degree Days  
Heating Degree Days 18 9  
Month to date heating degree days 174  
Since 1 July heating degree days 197  
Cooling Degree Days 0 0  
Month to date cooling degree days 39  
Year to date cooling degree days 1514  
Moisture  
Dew Point 47 °F    
Average Humidity 97    
Maximum Humidity 100    
Minimum Humidity 88    
Precipitation  
Precipitation 0.01 in 0.10 in 2.51 in (1970)
Month to date precipitation 3.30  
Year to date precipitation 35.14  
Snow  
Snow 0.00 in 0.00 in 0.00 in ()
Month to date snowfall 0.0  
Since 1 July snowfall 0.0  
Since 1 September snowfall 0.0  
Snow Depth -    
Sea Level Pressure  
Sea Level Pressure 29.88 in    
Wind  
Wind Speed 4 mph (NNE)    
Max Wind Speed 8 mph    
Max Gust Speed -    
Visibility 4 miles    
Events Fog    
T = Trace of Precipitation, MM = Missing Value Source: NWS Daily Summary

Daily Weather History Graph

Daily Weather History Graph

Search for Another Location

Airport or City:

Trip Planner

Search our weather history database for the weather conditions in past years. The results will help you decide how hot, cold, wet, or windy it might be!

Date:

Astronomy

Oct. 30, 2002 Rise Set
Actual Time 6:43 AM EST 5:31 PM EST
Civil Twilight 6:16 AM EST 5:57 PM EST
Nautical Twilight 5:47 AM EST 6:27 PM EST
Astronomical Twilight 5:17 AM EST 6:56 PM EST
Moon 12:24 AM EST (10/30) 2:43 PM EST (10/30)
Length of Visible Light 11h 40m
Length of Day
10h 48m
Waning Crescent, 34% of the Moon is Illuminated
Oct 30
Waning Crescent
Nov 4
New
Nov 11
First Quarter
Nov 19
Full
Nov 27
Last Quarter

Hourly Weather History & Observations

Time (EST) Temp. Windchill Dew Point Humidity Pressure Visibility Wind Dir Wind Speed Gust Speed Precip Events Conditions
12:51 AM 48.0 °F - 48.0 °F 100% 29.85 in 3.0 mi ENE 5.8 mph - 0.00 in   Light Drizzle
1:33 AM 48.2 °F - 48.2 °F 100% 29.85 in 2.5 mi NE 4.6 mph - 0.00 in   Light Drizzle
1:51 AM 48.0 °F - 48.0 °F 100% 29.85 in 3.0 mi ENE 8.1 mph - 0.00 in   Light Drizzle
2:11 AM 48.2 °F - 48.2 °F 100% 29.84 in 2.5 mi NE 3.5 mph - 0.00 in   Light Drizzle
2:27 AM 48.2 °F - 48.2 °F 100% 29.84 in 1.8 mi ENE 5.8 mph - 0.00 in   Light Drizzle
2:51 AM 48.0 °F - 48.0 °F 100% 29.83 in 2.5 mi NE 5.8 mph - 0.00 in   Light Drizzle
3:51 AM 48.0 °F - 46.9 °F 96% 29.84 in 3.0 mi North 5.8 mph - 0.01 in   Overcast
4:23 AM 48.2 °F - 46.4 °F 93% 29.85 in 3.0 mi NNW 3.5 mph - 0.00 in   Light Drizzle
4:51 AM 48.0 °F - 46.9 °F 96% 29.87 in 3.0 mi NNW 5.8 mph - 0.00 in   Light Drizzle
5:35 AM 46.4 °F 43.5 °F 46.4 °F 100% 29.87 in 3.0 mi NNE 5.8 mph - 0.00 in   Light Drizzle
5:51 AM 46.9 °F - 46.9 °F 100% 29.86 in 3.0 mi NNE 6.9 mph - 0.00 in   Light Drizzle
6:51 AM 46.0 °F 41.9 °F 45.0 °F 96% 29.85 in 5.0 mi NNE 8.1 mph - 0.00 in   Overcast
7:51 AM 46.0 °F 42.5 °F 45.0 °F 96% 29.86 in 5.0 mi NNE 6.9 mph - N/A   Overcast
8:32 AM 46.4 °F 44.3 °F 44.6 °F 93% 29.88 in 1.0 mi North 4.6 mph - N/A   Overcast
8:51 AM 46.0 °F 43.9 °F 46.0 °F 100% 29.88 in 1.0 mi NNE 4.6 mph - N/A   Overcast
9:09 AM 46.4 °F 44.3 °F 46.4 °F 100% 29.88 in 1.0 mi NNE 4.6 mph - N/A   Overcast
9:51 AM 46.9 °F - 46.0 °F 97% 29.86 in 1.0 mi NE 4.6 mph - N/A   Overcast
10:51 AM 46.9 °F - 46.9 °F 100% 29.87 in 1.0 mi Calm Calm - N/A   Overcast
11:22 AM 48.2 °F - 46.4 °F 93% 29.86 in 1.0 mi North 3.5 mph - N/A   Overcast
11:40 AM 48.2 °F - 48.2 °F 100% 29.86 in 1.0 mi North 5.8 mph - N/A   Overcast
11:51 AM 48.9 °F - 48.0 °F 97% 29.85 in 1.0 mi Variable 4.6 mph - N/A   Overcast
12:05 PM 48.2 °F - 48.2 °F 100% 29.84 in 7.0 mi NNE 5.8 mph - N/A   Overcast
12:51 PM 50.0 °F - 48.0 °F 93% 29.83 in 8.0 mi Calm Calm - N/A   Overcast
1:51 PM 50.0 °F - 48.9 °F 96% 29.82 in 7.0 mi Calm Calm - N/A   Overcast
2:51 PM 51.1 °F - 48.9 °F 92% 29.84 in 6.0 mi Calm Calm - N/A   Overcast
3:51 PM 52.0 °F - 50.0 °F 93% 29.86 in 7.0 mi Calm Calm - N/A   Overcast
4:37 PM 51.8 °F - 48.2 °F 88% 29.87 in 7.0 mi Calm Calm - N/A   Overcast
4:51 PM 52.0 °F - 48.9 °F 89% 29.86 in 8.0 mi Calm Calm - N/A   Overcast
5:51 PM 52.0 °F - 48.9 °F 89% 29.89 in 9.0 mi NW 3.5 mph - N/A   Overcast
6:51 PM 51.1 °F - 50.0 °F 96% 29.91 in 9.0 mi Calm Calm - N/A   Overcast
7:51 PM 51.1 °F - 50.0 °F 96% 29.92 in 7.0 mi Calm Calm - N/A   Overcast
8:51 PM 48.9 °F - 48.9 °F 100% 29.94 in 9.0 mi Calm Calm - N/A   Overcast
9:08 PM 46.4 °F - 46.4 °F 100% 29.94 in 9.0 mi Calm Calm - N/A   Scattered Clouds
9:51 PM 45.0 °F - 45.0 °F 100% 29.96 in 5.0 mi Calm Calm - N/A   Partly Cloudy
10:51 PM 45.0 °F - 45.0 °F 100% 29.97 in 5.0 mi Calm Calm - N/A   Partly Cloudy
11:42 PM 42.8 °F - 42.8 °F 100% 29.97 in 5.0 mi Calm Calm - N/A Fog Patches of Fog
11:51 PM 42.1 °F - 42.1 °F 100% 29.97 in 5.0 mi Calm Calm - N/A Fog Patches of Fog